Skip Page Navigation
NASA JPL Caltech
NASA Logo - Jet Propulsion Laboratory + View the NASA Portal
+ Center for Near-Earth Object Studies
JPL Home Earth Solar System Stars & Galaxies Technology
JPL Solar System Dynamics
BODIES ORBITS EPHEMERIDES TOOLS PHYSICAL DATA DISCOVERY FAQ SITE MAP
IMPORTANT: The SSD Announcement email list is now available. Major changes are coming in the near future, including possible hostname and/or URL changes. To be notified of such changes, subscribe to this email list.

Please visit this page for more details.


JPL Small-Body Database Browser
Search: [ help ]  
105029 (2000 KG33)
Classification: Main-belt Asteroid          SPK-ID: 2105029
Ephemeris | Orbit Diagram | Orbital Elements | Mission Design | Physical Parameters | Discovery Circumstances | Close-Approach Data ]

[ show orbit diagram ]
Orbital Elements at Epoch 2459000.5 (2020-May-31.0) TDB
Reference: JPL 13 (heliocentric ecliptic J2000)
 Element Value Uncertainty (1-sigma)   Units 
e .2454417514070303 4.9308e-08  
a 2.652169853660983 1.828e-08 au
q 2.001216639749504 1.3082e-07 au
i 13.16610466408568 6.7771e-06 deg
node 254.0680899639466 2.6341e-05 deg
peri 25.6799243923708 2.988e-05 deg
M 216.5954907764042 1.6342e-05 deg
tp 2459628.935536043341
(2022-Feb-18.43553604)
7.4743e-05 TDB
period 1577.612825429744
4.32
1.631e-05
4.465e-08
d
yr
n .2281928710245719 2.3592e-09 deg/d
Q 3.303123067572462 2.2766e-08 au
  Orbit Determination Parameters
   # obs. used (total)      434  
   data-arc span      6772 days (18.54 yr)  
   first obs. used      2000-05-28  
   last obs. used      2018-12-12  
   planetary ephem.      DE431  
   SB-pert. ephem.      SB431-N16  
   condition code      0  
   norm. resid. RMS      .55636  
   source      ORB  
   producer      Otto Matic  
   solution date      2019-Jul-13 13:12:09  

Additional Information
 Earth MOID = .993038 au 
 Jupiter MOID = 1.85336 au 
 T_jup = 3.310 
[ show covariance matrix ]

Ephemeris | Orbit Diagram | Orbital Elements | Mission Design | Physical Parameters | Discovery Circumstances | Close-Approach Data ]

Physical Parameter Table
Parameter Symbol Value Units Sigma Reference Notes
absolute magnitude H 15.2   n/a MPO359484  

105029 (2000 KG33)          Discovered 2000-May-28 by LINEAR at Socorro
Reference: 20051019/Numbers.arcLast Updated: 2005-10-26

[ show close-approach data ]
Alternate Designations
 2000 KG33 = 2004 GZ 
Ephemeris | Orbit Diagram | Orbital Elements | Mission Design | Physical Parameters | Discovery Circumstances | Close-Approach Data ]
ABOUT SSD CREDITS/AWARDS PRIVACY/COPYRIGHT GLOSSARY LINKS
FirstGov 2020-Apr-05 17:27 UT
(server date/time)  
NASA Home Page
Site Manager:   Ryan S. Park
Webmaster  Alan B. Chamberlin